{"data":{"norad_id":63036,"epoch":"2026-05-25T00:40:15.305952Z","epoch_age_seconds":72876,"freshness":"FRESH","line1":"1 63036U 25034H   26145.02795493  .00017529  00000+0  60239-3 0  9995","line2":"2 63036  53.1551 263.6079 0000959  85.8847 274.2263 15.30208072 70771","mean_motion":15.30208072,"eccentricity":9.59e-5,"inclination_deg":53.1551,"raan_deg":263.6079,"arg_perigee_deg":85.8847,"mean_anomaly_deg":274.2263,"bstar":0.00060239,"rev_number":7077,"period_min":94.104849291371,"perigee_km":474.53373383613,"apogee_km":475.84820214039,"semimajor_km":6853.3279679883,"source":"CELESTRAK","updated_at":"2026-05-25T13:38:19.866635Z"}}